| time (UTC) | temp C | wind direction | speed KPH | gust KPH | rain 1hr cm | rain 24hr cm | rain mn cm | humidity % | barometer mb |
| 20260902231700 | 31 | 213 | 6.4 | 11.3 | 0.00 | 0.00 | 0.00 | 75 | 1014.5 |
| 20260902231159 | 31 | 213 | 8.0 | 11.3 | 0.00 | 0.00 | 0.00 | 75 | 1014.4 |
| 20260902230655 | 31 | 210 | 9.7 | 17.7 | 0.00 | 0.00 | 0.00 | 74 | 1014.4 |
| 20260902230154 | 31 | 216 | 6.4 | 11.3 | 0.00 | 0.00 | 0.00 | 74 | 1014.3 |
| 20260902225649 | 31 | 211 | 11.3 | 14.5 | 0.00 | 0.00 | 0.00 | 73 | 1014.5 |
| 20260902225148 | 32 | 212 | 6.4 | 14.5 | 0.00 | 0.00 | 0.00 | 73 | 1014.7 |
| 20260902224647 | 32 | 214 | 8.0 | 12.9 | 0.00 | 0.00 | 0.00 | 73 | 1014.3 |
| 20260902224143 | 32 | 221 | 8.0 | 14.5 | 0.00 | 0.00 | 0.00 | 72 | 1014.5 |
| 20260902223639 | 32 | 218 | 4.8 | 16.1 | 0.00 | 0.00 | 0.00 | 72 | 1014.6 |
| 20260902223138 | 32 | 220 | 6.4 | 12.9 | 0.00 | 0.00 | 0.00 | 71 | 1014.6 |
| 20260902222638 | 32 | 234 | 8.0 | 16.1 | 0.00 | 0.00 | 0.00 | 71 | 1014.4 |
| 20260902222136 | 32 | 208 | 6.4 | 14.5 | 0.00 | 0.00 | 0.00 | 70 | 1014.3 |
| 20260902221631 | 32 | 213 | 9.7 | 14.5 | 0.00 | 0.00 | 0.00 | 69 | 1014.5 |
| 20260902221126 | 32 | 230 | 6.4 | 12.9 | 0.00 | 0.00 | 0.00 | 69 | 1014.6 |
| 20260902220622 | 32 | 229 | 9.7 | 12.9 | 0.00 | 0.00 | 0.00 | 71 | 1014.4 |
| 20260902220121 | 32 | 225 | 8.0 | 14.5 | 0.00 | 0.00 | 0.00 | 69 | 1014.6 |
| 20260902215618 | 32 | 221 | 8.0 | 19.3 | 0.00 | 0.00 | 0.00 | 70 | 1014.4 |
| 20260902215112 | 32 | 222 | 16.1 | 19.3 | 0.00 | 0.00 | 0.00 | 69 | 1014.4 |
| 20260902214607 | 32 | 223 | 9.7 | 25.7 | 0.00 | 0.00 | 0.00 | 69 | 1014.5 |
| 20260902214106 | 32 | 217 | 11.3 | 20.9 | 0.00 | 0.00 | 0.00 | 69 | 1014.6 |
| 20260902213603 | 33 | 221 | 11.3 | 22.5 | 0.00 | 0.00 | 0.00 | 67 | 1014.6 |
| 20260902213101 | 33 | 227 | 9.7 | 22.5 | 0.00 | 0.00 | 0.00 | 67 | 1014.7 |
| 20260902212557 | 33 | 215 | 4.8 | 19.3 | 0.00 | 0.00 | 0.00 | 68 | 1014.5 |
| 20260902212053 | 33 | 229 | 8.0 | 20.9 | 0.00 | 0.00 | 0.00 | 68 | 1014.4 |
| 20260902211549 | 33 | 223 | 8.0 | 19.3 | 0.00 | 0.00 | 0.00 | 70 | 1014.6 |
| 20260902211049 | 33 | 245 | 11.3 | 14.5 | 0.00 | 0.00 | 0.00 | 69 | 1014.4 |
| 20260902210544 | 33 | 212 | 11.3 | 16.1 | 0.00 | 0.00 | 0.00 | 66 | 1014.5 |
| 20260902210044 | 33 | 220 | 14.5 | 25.7 | 0.00 | 0.00 | 0.00 | 68 | 1014.6 |
| 20260902205543 | 33 | 212 | 14.5 | 25.7 | 0.00 | 0.00 | 0.00 | 67 | 1014.8 |
| 20260902205039 | 33 | 222 | 16.1 | 20.9 | 0.00 | 0.00 | 0.00 | 68 | 1014.7 |
| 20260902204538 | 33 | 215 | 8.0 | 12.9 | 0.00 | 0.00 | 0.00 | 68 | 1014.9 |
| 20260902204033 | 33 | 228 | 14.5 | 20.9 | 0.00 | 0.00 | 0.00 | 67 | 1014.8 |
| 20260902203529 | 33 | 220 | 6.4 | 9.7 | 0.00 | 0.00 | 0.00 | 67 | 1014.9 |
| 20260902203028 | 33 | 227 | 9.7 | 22.5 | 0.00 | 0.00 | 0.00 | 67 | 1015.0 |
| 20260902202524 | 33 | 212 | 16.1 | 22.5 | 0.00 | 0.00 | 0.00 | 67 | 1015.1 |
| 20260902202020 | 33 | 235 | 8.0 | 22.5 | 0.00 | 0.00 | 0.00 | 66 | 1015.2 |
| 20260902201516 | 33 | 213 | 11.3 | 25.7 | 0.00 | 0.00 | 0.00 | 66 | 1015.2 |
| 20260902201015 | 33 | 242 | 8.0 | 19.3 | 0.00 | 0.00 | 0.00 | 66 | 1015.3 |
| 20260902200510 | 33 | 215 | 12.9 | 19.3 | 0.00 | 0.00 | 0.00 | 65 | 1015.1 |
| 20260902200006 | 33 | 209 | 12.9 | 19.3 | 0.00 | 0.00 | 0.00 | 65 | 1015.3 |
| 20260902195503 | 33 | 237 | 11.3 | 16.1 | 0.00 | 0.00 | 0.00 | 65 | 1015.4 |
| 20260902195001 | 33 | 216 | 9.7 | 19.3 | 0.00 | 0.00 | 0.00 | 64 | 1015.1 |
| 20260902194501 | 33 | 231 | 4.8 | 11.3 | 0.00 | 0.00 | 0.00 | 69 | 1015.1 |
| 20260902193956 | 33 | 219 | 6.4 | 17.7 | 0.00 | 0.00 | 0.00 | 66 | 1015.6 |
| 20260902193452 | 33 | 276 | 8.0 | 11.3 | 0.00 | 0.00 | 0.00 | 63 | 1015.6 |
| 20260902192950 | 33 | 228 | 9.7 | 20.9 | 0.00 | 0.00 | 0.00 | 66 | 1015.6 |
| 20260902192449 | 33 | 214 | 4.8 | 17.7 | 0.00 | 0.00 | 0.00 | 63 | 1015.6 |
| 20260902191948 | 33 | 226 | 9.7 | 22.5 | 0.00 | 0.00 | 0.00 | 65 | 1015.6 |
| 20260902191443 | 33 | 222 | 8.0 | 12.9 | 0.00 | 0.00 | 0.00 | 64 | 1015.6 |
| 20260902190939 | 33 | 202 | 8.0 | 17.7 | 0.00 | 0.00 | 0.00 | 66 | 1015.9 |
| 20260902190434 | 33 | 219 | 11.3 | 20.9 | 0.00 | 0.00 | 0.00 | 64 | 1016.0 |
| 20260902185930 | 33 | 232 | 4.8 | 12.9 | 0.00 | 0.00 | 0.00 | 66 | 1016.2 |
| 20260902185426 | 33 | 264 | 9.7 | 17.7 | 0.00 | 0.00 | 0.00 | 66 | 1015.7 |
| 20260902184921 | 33 | 232 | 6.4 | 19.3 | 0.00 | 0.00 | 0.00 | 65 | 1015.8 |
| 20260902184416 | 33 | 246 | 8.0 | 22.5 | 0.00 | 0.00 | 0.00 | 66 | 1015.8 |
| 20260902183912 | 33 | 225 | 12.9 | 27.4 | 0.00 | 0.00 | 0.00 | 62 | 1016.0 |
| 20260902183408 | 33 | 214 | 11.3 | 16.1 | 0.00 | 0.00 | 0.00 | 66 | 1016.3 |
| 20260902182903 | 33 | 210 | 12.9 | 16.1 | 0.00 | 0.00 | 0.00 | 65 | 1016.2 |
| 20260902182400 | 33 | 210 | 9.7 | 17.7 | 0.00 | 0.00 | 0.00 | 63 | 1016.3 |
| 20260902181856 | 33 | 219 | 9.7 | 20.9 | 0.00 | 0.00 | 0.00 | 66 | 1016.2 |
| 20260902181351 | 33 | 232 | 6.4 | 24.1 | 0.00 | 0.00 | 0.00 | 65 | 1016.2 |
| 20260902180850 | 33 | 202 | 8.0 | 20.9 | 0.00 | 0.00 | 0.00 | 68 | 1016.1 |
| 20260902180346 | 33 | 218 | 6.4 | 16.1 | 0.00 | 0.00 | 0.00 | 68 | 1016.2 |
| 20260902175841 | 33 | 228 | 14.5 | 19.3 | 0.00 | 0.00 | 0.00 | 66 | 1016.3 |
| 20260902175337 | 33 | 228 | 4.8 | 12.9 | 0.00 | 0.00 | 0.00 | 69 | 1016.6 |
| 20260902174832 | 33 | 213 | 12.9 | 22.5 | 0.00 | 0.00 | 0.00 | 67 | 1016.5 |
| 20260902174329 | 33 | 210 | 8.0 | 12.9 | 0.00 | 0.00 | 0.00 | 68 | 1016.4 |
| 20260902173825 | 33 | 209 | 6.4 | 12.9 | 0.00 | 0.00 | 0.00 | 67 | 1016.6 |
| 20260902173325 | 32 | 241 | 6.4 | 16.1 | 0.00 | 0.00 | 0.00 | 67 | 1016.5 |
| 20260902172824 | 33 | 216 | 9.7 | 17.7 | 0.00 | 0.00 | 0.00 | 65 | 1016.7 |
| 20260902172319 | 32 | 228 | 6.4 | 14.5 | 0.00 | 0.00 | 0.00 | 72 | 1016.6 |
| 20260902171814 | 32 | 265 | 4.8 | 17.7 | 0.00 | 0.00 | 0.00 | 74 | 1016.6 |
| 20260902171309 | 33 | 206 | 11.3 | 14.5 | 0.00 | 0.00 | 0.00 | 65 | 1016.9 |
| 20260902170806 | 32 | 275 | 3.2 | 16.1 | 0.00 | 0.00 | 0.00 | 70 | 1016.7 |
| 20260902170301 | 33 | 236 | 6.4 | 11.3 | 0.00 | 0.00 | 0.00 | 69 | 1016.4 |
| 20260902165756 | 32 | 234 | 6.4 | 14.5 | 0.00 | 0.00 | 0.00 | 71 | 1016.6 |
| 20260902165255 | 32 | 310 | 3.2 | 11.3 | 0.00 | 0.00 | 0.00 | 70 | 1016.9 |
| 20260902164751 | 32 | 206 | 9.7 | 14.5 | 0.00 | 0.00 | 0.00 | 71 | 1017.0 |
| 20260902164250 | 32 | 253 | 6.4 | 17.7 | 0.00 | 0.00 | 0.00 | 70 | 1016.8 |
| 20260902163746 | 32 | 239 | 6.4 | 14.5 | 0.00 | 0.00 | 0.00 | 73 | 1017.1 |
| 20260902163245 | 32 | 212 | 4.8 | 14.5 | 0.00 | 0.00 | 0.00 | 73 | 1017.0 |
| 20260902162743 | 32 | 298 | 3.2 | 9.7 | 0.00 | 0.00 | 0.00 | 75 | 1017.0 |
| 20260902162238 | 32 | 230 | 11.3 | 19.3 | 0.00 | 0.00 | 0.00 | 70 | 1017.0 |
| 20260902161734 | 32 | 313 | 4.8 | 14.5 | 0.00 | 0.00 | 0.00 | 73 | 1016.8 |
| 20260902161229 | 32 | 257 | 8.0 | 11.3 | 0.00 | 0.00 | 0.00 | 73 | 1017.3 |
| 20260902160726 | 31 | 236 | 6.4 | 17.7 | 0.00 | 0.00 | 0.00 | 72 | 1016.9 |
| 20260902160226 | 31 | 216 | 4.8 | 11.3 | 0.00 | 0.00 | 0.00 | 77 | 1016.9 |
| 20260902155724 | 31 | 297 | 6.4 | 14.5 | 0.00 | 0.00 | 0.00 | 75 | 1016.9 |
| 20260902155223 | 31 | 258 | 1.6 | 14.5 | 0.00 | 0.00 | 0.00 | 74 | 1016.8 |
| 20260902154718 | 32 | 263 | 3.2 | 9.7 | 0.00 | 0.00 | 0.00 | 72 | 1017.1 |
| 20260902154213 | 31 | 241 | 9.7 | 12.9 | 0.00 | 0.00 | 0.00 | 76 | 1017.0 |
| 20260902153713 | 31 | 259 | 6.4 | 17.7 | 0.00 | 0.00 | 0.00 | 75 | 1017.0 |
| 20260902153212 | 31 | 218 | 4.8 | 16.1 | 0.00 | 0.00 | 0.00 | 75 | 1016.9 |
| 20260902152709 | 31 | 231 | 6.4 | 9.7 | 0.00 | 0.00 | 0.00 | 78 | 1016.8 |
| 20260902152204 | 31 | 272 | 3.2 | 9.7 | 0.00 | 0.00 | 0.00 | 78 | 1016.9 |
| 20260902151659 | 30 | 223 | 3.2 | 11.3 | 0.00 | 0.00 | 0.00 | 78 | 1016.9 |
| 20260902151154 | 30 | 251 | 0.0 | 12.9 | 0.00 | 0.00 | 0.00 | 80 | 1016.8 |
| 20260902150649 | 30 | 298 | 8.0 | 19.3 | 0.00 | 0.00 | 0.00 | 77 | 1017.0 |
| 20260902150145 | 30 | 275 | 6.4 | 11.3 | 0.00 | 0.00 | 0.00 | 78 | 1016.8 |
| 20260902145644 | 30 | 227 | 8.0 | 14.5 | 0.00 | 0.00 | 0.00 | 80 | 1016.7 |
| 20260902145144 | 30 | 253 | 3.2 | 12.9 | 0.00 | 0.00 | 0.00 | 79 | 1016.9 |
| 20260902144641 | 30 | 218 | 6.4 | 8.0 | 0.00 | 0.00 | 0.00 | 79 | 1017.0 |
| 20260902144136 | 30 | 255 | 6.4 | 17.7 | 0.00 | 0.00 | 0.00 | 80 | 1017.0 |
| 20260902143630 | 29 | 234 | 3.2 | 11.3 | 0.00 | 0.00 | 0.00 | 80 | 1016.8 |
| 20260902143126 | 29 | 296 | 8.0 | 11.3 | 0.00 | 0.00 | 0.00 | 81 | 1017.0 |
| 20260902142621 | 29 | 265 | 4.8 | 14.5 | 0.00 | 0.00 | 0.00 | 82 | 1017.1 |
| 20260902142117 | 28 | 273 | 1.6 | 14.5 | 0.00 | 0.00 | 0.00 | 81 | 1016.9 |
| 20260902141616 | 28 | 234 | 3.2 | 8.0 | 0.00 | 0.00 | 0.00 | 84 | 1017.3 |
| 20260902141113 | 28 | 295 | 4.8 | 12.9 | 0.00 | 0.00 | 0.00 | 83 | 1017.0 |
| 20260902140613 | 28 | 292 | 3.2 | 9.7 | 0.00 | 0.00 | 0.00 | 85 | 1016.7 |
| 20260902140108 | 27 | 281 | 4.8 | 8.0 | 0.00 | 0.00 | 0.00 | 84 | 1017.0 |
| 20260902135607 | 27 | 275 | 6.4 | 11.3 | 0.00 | 0.00 | 0.00 | 83 | 1016.9 |
| 20260902135102 | 27 | 262 | 6.4 | 11.3 | 0.00 | 0.00 | 0.00 | 85 | 1017.0 |
| 20260902134558 | 27 | 233 | 3.2 | 4.8 | 0.00 | 0.00 | 0.00 | 87 | 1016.8 |
| 20260902134057 | 26 | 297 | 0.0 | 4.8 | 0.00 | 0.00 | 0.00 | 89 | 1017.1 |
| 20260902133553 | 26 | 259 | 1.6 | 9.7 | 0.00 | 0.00 | 0.00 | 90 | 1017.3 |
| 20260902133053 | 26 | 227 | 3.2 | 6.4 | 0.00 | 0.00 | 0.00 | 90 | 1016.9 |
| 20260902132548 | 26 | 245 | 0.0 | 6.4 | 0.00 | 0.00 | 0.00 | 90 | 1017.1 |
| 20260902132043 | 26 | 213 | 4.8 | 8.0 | 0.00 | 0.00 | 0.00 | 89 | 1016.9 |
| 20260902131539 | 26 | 239 | 1.6 | 9.7 | 0.00 | 0.00 | 0.00 | 89 | 1016.9 |
| 20260902131039 | 26 | 238 | 3.2 | 12.9 | 0.00 | 0.00 | 0.00 | 91 | 1017.1 |
| 20260902130535 | 26 | 196 | 3.2 | 9.7 | 0.00 | 0.00 | 0.00 | 91 | 1017.0 |
| 20260902130031 | 25 | 183 | 3.2 | 8.0 | 0.00 | 0.00 | 0.00 | 92 | 1016.9 |
| 20260902125526 | 25 | 220 | 1.6 | 6.4 | 0.00 | 0.00 | 0.00 | 92 | 1017.0 |
| 20260902125022 | 25 | 227 | 4.8 | 11.3 | 0.00 | 0.00 | 0.00 | 92 | 1016.9 |
| 20260902124518 | 25 | 230 | 0.0 | 6.4 | 0.00 | 0.00 | 0.00 | 92 | 1016.9 |
| 20260902124013 | 25 | 224 | 4.8 | 8.0 | 0.00 | 0.00 | 0.00 | 94 | 1017.0 |
| 20260902123509 | 24 | 253 | 3.2 | 14.5 | 0.00 | 0.00 | 0.00 | 93 | 1016.8 |
| 20260902123008 | 24 | 210 | 3.2 | 6.4 | 0.00 | 0.00 | 0.00 | 94 | 1017.0 |
| 20260902122503 | 23 | 221 | 3.2 | 4.8 | 0.00 | 0.00 | 0.00 | 95 | 1016.9 |
| 20260902121958 | 23 | 214 | 0.0 | 9.7 | 0.00 | 0.00 | 0.00 | 95 | 1016.8 |
| 20260902121453 | 23 | 227 | 3.2 | 4.8 | 0.00 | 0.00 | 0.00 | 95 | 1016.8 |
| 20260902120948 | 23 | 214 | 4.8 | 6.4 | 0.00 | 0.00 | 0.00 | 95 | 1016.7 |
| 20260902120445 | 23 | 213 | 6.4 | 9.7 | 0.00 | 0.00 | 0.00 | 95 | 1016.9 |
| 20260902115944 | 23 | 211 | 1.6 | 8.0 | 0.00 | 0.00 | 0.00 | 95 | 1017.0 |
| 20260902115440 | 23 | 215 | 6.4 | 6.4 | 0.00 | 0.00 | 0.00 | 96 | 1016.8 |
| 20260902114937 | 23 | 215 | 3.2 | 4.8 | 0.00 | 0.00 | 0.00 | 96 | 1016.6 |
| 20260902114432 | 23 | 106 | 0.0 | 4.8 | 0.00 | 0.00 | 0.00 | 96 | 1016.6 |
| 20260902113932 | 22 | 213 | 1.6 | 4.8 | 0.00 | 0.00 | 0.00 | 97 | 1016.7 |
| 20260902113428 | 22 | 150 | 0.0 | 3.2 | 0.00 | 0.00 | 0.00 | 98 | 1016.5 |
| 20260902112928 | 22 | 147 | 0.0 | 3.2 | 0.00 | 0.00 | 0.00 | 97 | 1016.4 |
| 20260902112424 | 22 | 59 | 0.0 | 3.2 | 0.00 | 0.00 | 0.00 | 98 | 1016.4 |
| 20260902111920 | 22 | 228 | 3.2 | 4.8 | 0.00 | 0.00 | 0.00 | 98 | 1016.2 |
| 20260902111416 | 22 | 154 | 0.0 | 4.8 | 0.00 | 0.00 | 0.00 | 98 | 1016.5 |
| 20260902110912 | 22 | 193 | 0.0 | 3.2 | 0.00 | 0.00 | 0.00 | 98 | 1016.4 |
| 20260902110408 | 22 | 144 | 1.6 | 4.8 | 0.00 | 0.00 | 0.00 | 99 | 1016.1 |
| 20260902105907 | 22 | 156 | 0.0 | 4.8 | 0.00 | 0.00 | 0.00 | 99 | 1016.5 |
| 20260902105402 | 22 | 201 | 3.2 | 3.2 | 0.00 | 0.00 | 0.00 | 98 | 1016.4 |
| 20260902104857 | 22 | 214 | 1.6 | 3.2 | 0.00 | 0.00 | 0.00 | 98 | 1016.3 |
| 20260902104354 | 22 | 201 | 1.6 | 4.8 | 0.00 | 0.00 | 0.00 | 98 | 1016.2 |
| 20260902103853 | 22 | 191 | 0.0 | 4.8 | 0.00 | 0.00 | 0.00 | 97 | 1016.2 |
| 20260902103349 | 22 | 224 | 4.8 | 6.4 | 0.00 | 0.00 | 0.00 | 98 | 1016.3 |
| 20260902102849 | 22 | 93 | 0.0 | 6.4 | 0.00 | 0.00 | 0.00 | 98 | 1016.1 |
| 20260902102348 | 22 | 178 | 1.6 | 6.4 | 0.00 | 0.00 | 0.00 | 98 | 1016.1 |
| 20260902101842 | 22 | 193 | 3.2 | 4.8 | 0.00 | 0.00 | 0.00 | 98 | 1015.8 |
| 20260902101336 | 22 | 206 | 1.6 | 3.2 | 0.00 | 0.00 | 0.00 | 98 | 1016.0 |
| 20260902100831 | 22 | 206 | 1.6 | 9.7 | 0.00 | 0.00 | 0.00 | 98 | 1016.1 |
| 20260902100330 | 22 | 150 | 1.6 | 9.7 | 0.00 | 0.00 | 0.00 | 98 | 1015.9 |
| 20260902095826 | 22 | 198 | 3.2 | 4.8 | 0.00 | 0.00 | 0.00 | 98 | 1015.9 |
| 20260902095325 | 22 | 164 | 3.2 | 6.4 | 0.00 | 0.00 | 0.00 | 98 | 1015.9 |
| 20260902094820 | 22 | 147 | 0.0 | 6.4 | 0.00 | 0.00 | 0.00 | 98 | 1016.0 |
| 20260902094316 | 22 | 39 | 1.6 | 4.8 | 0.00 | 0.00 | 0.00 | 97 | 1015.9 |
| 20260902093815 | 22 | 172 | 1.6 | 6.4 | 0.00 | 0.00 | 0.00 | 97 | 1015.9 |
| 20260902093310 | 23 | 92 | 0.0 | 4.8 | 0.00 | 0.00 | 0.00 | 96 | 1015.9 |
| 20260902092810 | 23 | 133 | 0.0 | 11.3 | 0.00 | 0.00 | 0.00 | 96 | 1016.0 |
| 20260902092305 | 23 | 215 | 3.2 | 6.4 | 0.00 | 0.00 | 0.00 | 97 | 1016.2 |
| 20260902091805 | 23 | 193 | 0.0 | 4.8 | 0.00 | 0.00 | 0.00 | 97 | 1016.0 |
| 20260902091301 | 23 | 237 | 0.0 | 6.4 | 0.00 | 0.00 | 0.00 | 97 | 1016.0 |
| 20260902090757 | 23 | 154 | 0.0 | 1.6 | 0.00 | 0.00 | 0.00 | 98 | 1016.0 |
| 20260902090256 | 23 | 156 | 0.0 | 3.2 | 0.00 | 0.00 | 0.00 | 98 | 1016.0 |
| 20260902085755 | 22 | 133 | 1.6 | 3.2 | 0.00 | 0.00 | 0.00 | 98 | 1015.8 |
| 20260902085251 | 22 | 105 | 1.6 | 3.2 | 0.00 | 0.00 | 0.00 | 98 | 1016.0 |
| 20260902084747 | 22 | 73 | 0.0 | 3.2 | 0.00 | 0.00 | 0.00 | 98 | 1015.9 |
| 20260902084243 | 23 | 204 | 0.0 | 3.2 | 0.00 | 0.00 | 0.00 | 98 | 1015.9 |
| 20260902083738 | 22 | 201 | 0.0 | 3.2 | 0.00 | 0.00 | 0.00 | 99 | 1015.8 |
| 20260902083238 | 22 | 133 | 1.6 | 3.2 | 0.00 | 0.00 | 0.00 | 99 | 1015.9 |
| 20260902082733 | 22 | 256 | 0.0 | 3.2 | 0.00 | 0.00 | 0.00 | 99 | 1015.9 |
| 20260902082230 | 22 | 326 | 0.0 | 1.6 | 0.00 | 0.00 | 0.00 | 99 | 1016.0 |
| 20260902081726 | 22 | 25 | 0.0 | 1.6 | 0.00 | 0.00 | 0.00 | 99 | 1015.9 |
| 20260902081221 | 23 | 44 | 0.0 | 3.2 | 0.00 | 0.00 | 0.00 | 97 | 1015.8 |
| 20260902080716 | 23 | 131 | 0.0 | 3.2 | 0.00 | 0.00 | 0.00 | 97 | 1015.7 |
| 20260902080213 | 23 | 220 | 0.0 | 4.8 | 0.00 | 0.00 | 0.00 | 97 | 1015.8 |
| 20260902075712 | 23 | 166 | 0.0 | 1.6 | 0.00 | 0.00 | 0.00 | 97 | 1015.7 |
| 20260902075209 | 23 | 205 | 0.0 | 3.2 | 0.00 | 0.00 | 0.00 | 97 | 1015.8 |
| 20260902074708 | 23 | 164 | 0.0 | 4.8 | 0.00 | 0.00 | 0.00 | 97 | 1015.8 |
| 20260902074203 | 23 | 152 | 1.6 | 3.2 | 0.00 | 0.00 | 0.00 | 97 | 1015.8 |
| 20260902073659 | 23 | 242 | 0.0 | 3.2 | 0.00 | 0.00 | 0.00 | 97 | 1015.9 |
| 20260902073155 | 23 | 243 | 0.0 | 4.8 | 0.00 | 0.00 | 0.00 | 97 | 1015.8 |
| 20260902072651 | 23 | 174 | 0.0 | 3.2 | 0.00 | 0.00 | 0.00 | 97 | 1015.8 |
| 20260902072147 | 23 | 204 | 1.6 | 3.2 | 0.00 | 0.00 | 0.00 | 97 | 1015.7 |
| 20260902071642 | 23 | 197 | 1.6 | 4.8 | 0.00 | 0.00 | 0.00 | 97 | 1015.8 |
| 20260902071138 | 23 | 192 | 3.2 | 6.4 | 0.00 | 0.00 | 0.00 | 97 | 1015.8 |
| 20260902070633 | 23 | 188 | 1.6 | 4.8 | 0.00 | 0.00 | 0.00 | 98 | 1015.8 |
| 20260902070133 | 23 | 184 | 0.0 | 3.2 | 0.00 | 0.00 | 0.00 | 99 | 1015.7 |
| 20260902065632 | 23 | 129 | 0.0 | 1.6 | 0.00 | 0.00 | 0.00 | 99 | 1015.6 |
| 20260902065128 | 23 | 72 | 0.0 | 0.0 | 0.00 | 0.00 | 0.00 | 99 | 1015.7 |
| 20260902064623 | 23 | 72 | 0.0 | 0.0 | 0.00 | 0.00 | 0.00 | 99 | 1015.9 |
| 20260902064119 | 23 | 263 | 0.0 | 1.6 | 0.00 | 0.00 | 0.00 | 98 | 1015.9 |
| 20260902063614 | 23 | 205 | 0.0 | 0.0 | 0.00 | 0.00 | 0.00 | 97 | 1015.9 |
| 20260902063108 | 23 | 322 | 0.0 | 1.6 | 0.00 | 0.00 | 0.00 | 96 | 1015.7 |
| 20260902062607 | 24 | 220 | 0.0 | 3.2 | 0.00 | 0.00 | 0.00 | 95 | 1015.9 |
| 20260902062103 | 24 | 203 | 3.2 | 4.8 | 0.00 | 0.00 | 0.00 | 96 | 1015.9 |
| 20260902061602 | 24 | 212 | 0.0 | 3.2 | 0.00 | 0.00 | 0.00 | 96 | 1015.9 |
| 20260902061058 | 24 | 66 | 0.0 | 3.2 | 0.00 | 0.00 | 0.00 | 96 | 1016.0 |
| 20260902060555 | 24 | 142 | 0.0 | 3.2 | 0.00 | 0.00 | 0.00 | 96 | 1016.0 |
| 20260902060051 | 24 | 185 | 0.0 | 3.2 | 0.00 | 0.00 | 0.00 | 96 | 1016.0 |
| 20260902055546 | 24 | 148 | 0.0 | 3.2 | 0.00 | 0.00 | 0.00 | 96 | 1016.1 |
| 20260902055042 | 24 | 177 | 1.6 | 3.2 | 0.00 | 0.00 | 0.00 | 96 | 1015.9 |
| 20260902054537 | 24 | 135 | 0.0 | 3.2 | 0.00 | 0.00 | 0.00 | 96 | 1015.9 |
| 20260902054032 | 24 | 198 | 3.2 | 4.8 | 0.00 | 0.00 | 0.00 | 96 | 1015.7 |
| 20260902053527 | 24 | 151 | 0.0 | 3.2 | 0.00 | 0.00 | 0.00 | 96 | 1015.8 |
| 20260902053027 | 25 | 216 | 0.0 | 6.4 | 0.00 | 0.00 | 0.00 | 96 | 1015.7 |
| 20260902052521 | 24 | 227 | 4.8 | 6.4 | 0.00 | 0.00 | 0.00 | 96 | 1015.8 |
| 20260902052017 | 25 | 154 | 0.0 | 4.8 | 0.00 | 0.00 | 0.00 | 96 | 1015.8 |
| 20260902051517 | 25 | 164 | 0.0 | 6.4 | 0.00 | 0.00 | 0.00 | 95 | 1015.7 |
| 20260902051015 | 25 | 194 | 3.2 | 11.3 | 0.00 | 0.00 | 0.00 | 95 | 1015.7 |
| 20260902050510 | 25 | 211 | 6.4 | 9.7 | 0.00 | 0.00 | 0.00 | 95 | 1015.5 |
| 20260902050008 | 25 | 218 | 4.8 | 11.3 | 0.00 | 0.00 | 0.00 | 94 | 1015.6 |
| 20260902045501 | 25 | 228 | 6.4 | 14.5 | 0.00 | 0.00 | 0.00 | 94 | 1015.6 |
| 20260902044958 | 25 | 221 | 6.4 | 16.1 | 0.00 | 0.00 | 0.00 | 94 | 1015.7 |
| 20260902044458 | 25 | 214 | 6.4 | 12.9 | 0.00 | 0.00 | 0.00 | 94 | 1015.7 |
| 20260902043954 | 25 | 213 | 8.0 | 14.5 | 0.00 | 0.00 | 0.00 | 94 | 1015.5 |
| 20260902043448 | 25 | 208 | 9.7 | 14.5 | 0.00 | 0.00 | 0.00 | 94 | 1015.6 |
| 20260902042943 | 25 | 223 | 9.7 | 14.5 | 0.00 | 0.00 | 0.00 | 94 | 1015.6 |
| 20260902042443 | 25 | 213 | 6.4 | 12.9 | 0.00 | 0.00 | 0.00 | 94 | 1015.7 |
| 20260902041938 | 25 | 210 | 6.4 | 9.7 | 0.00 | 0.00 | 0.00 | 95 | 1015.8 |
| 20260902041433 | 25 | 224 | 1.6 | 9.7 | 0.00 | 0.00 | 0.00 | 95 | 1015.6 |
| 20260902040932 | 25 | 211 | 1.6 | 6.4 | 0.00 | 0.00 | 0.00 | 95 | 1015.8 |
| 20260902040427 | 25 | 244 | 0.0 | 6.4 | 0.00 | 0.00 | 0.00 | 95 | 1015.8 |
| 20260902035926 | 25 | 113 | 0.0 | 3.2 | 0.00 | 0.00 | 0.00 | 94 | 1015.8 |
| 20260902035422 | 25 | 199 | 3.2 | 6.4 | 0.00 | 0.00 | 0.00 | 94 | 1015.8 |
| 20260902034921 | 25 | 214 | 3.2 | 4.8 | 0.00 | 0.00 | 0.00 | 94 | 1015.8 |
| 20260902034416 | 25 | 194 | 3.2 | 9.7 | 0.00 | 0.00 | 0.00 | 93 | 1015.8 |
| 20260902033915 | 25 | 216 | 3.2 | 9.7 | 0.00 | 0.00 | 0.00 | 93 | 1016.0 |
| 20260902033414 | 26 | 210 | 4.8 | 9.7 | 0.00 | 0.00 | 0.00 | 93 | 1016.0 |
| 20260902032914 | 25 | 206 | 3.2 | 8.0 | 0.00 | 0.00 | 0.00 | 94 | 1015.7 |
| 20260902032408 | 26 | 180 | 1.6 | 8.0 | 0.00 | 0.00 | 0.00 | 93 | 1015.9 |
| 20260902031903 | 25 | 191 | 3.2 | 8.0 | 0.00 | 0.00 | 0.00 | 93 | 1016.1 |
| 20260902031359 | 26 | 205 | 3.2 | 4.8 | 0.00 | 0.00 | 0.00 | 93 | 1016.0 |
| 20260902030854 | 26 | 196 | 3.2 | 4.8 | 0.00 | 0.00 | 0.00 | 93 | 1016.1 |
| 20260902030348 | 26 | 224 | 3.2 | 8.0 | 0.00 | 0.00 | 0.00 | 93 | 1016.1 |
| 20260902025847 | 26 | 224 | 4.8 | 8.0 | 0.00 | 0.00 | 0.00 | 93 | 1015.9 |
| 20260902025343 | 26 | 212 | 3.2 | 8.0 | 0.00 | 0.00 | 0.00 | 92 | 1016.2 |
| 20260902024838 | 26 | 206 | 0.0 | 3.2 | 0.00 | 0.00 | 0.00 | 93 | 1016.0 |
| 20260902024334 | 26 | 212 | 1.6 | 8.0 | 0.00 | 0.00 | 0.00 | 93 | 1015.9 |
| 20260902023828 | 26 | 123 | 3.2 | 4.8 | 0.00 | 0.00 | 0.00 | 93 | 1015.7 |
| 20260902023324 | 26 | 221 | 4.8 | 4.8 | 0.00 | 0.00 | 0.00 | 93 | 1015.9 |
| 20260902022823 | 26 | 180 | 0.0 | 4.8 | 0.00 | 0.00 | 0.00 | 93 | 1015.6 |
| 20260902022318 | 26 | 223 | 3.2 | 6.4 | 0.00 | 0.00 | 0.00 | 92 | 1015.8 |
| 20260902021814 | 26 | 227 | 0.0 | 3.2 | 0.00 | 0.00 | 0.00 | 92 | 1015.8 |
| 20260902021309 | 26 | 191 | 0.0 | 6.4 | 0.00 | 0.00 | 0.00 | 92 | 1015.9 |
| 20260902020805 | 26 | 208 | 4.8 | 6.4 | 0.00 | 0.00 | 0.00 | 92 | 1015.7 |
| 20260902020301 | 26 | 213 | 1.6 | 3.2 | 0.00 | 0.00 | 0.00 | 92 | 1015.9 |
| 20260902015755 | 26 | 204 | 0.0 | 6.4 | 0.00 | 0.00 | 0.00 | 91 | 1015.8 |
| 20260902015252 | 26 | 198 | 3.2 | 4.8 | 0.00 | 0.00 | 0.00 | 91 | 1015.6 |
| 20260902014747 | 27 | 230 | 0.0 | 4.8 | 0.00 | 0.00 | 0.00 | 90 | 1015.6 |
| 20260902014244 | 27 | 199 | 3.2 | 6.4 | 0.00 | 0.00 | 0.00 | 89 | 1015.8 |
| 20260902013742 | 27 | 214 | 3.2 | 6.4 | 0.00 | 0.00 | 0.00 | 89 | 1015.7 |
| 20260902013238 | 27 | 183 | 0.0 | 8.0 | 0.00 | 0.00 | 0.00 | 89 | 1015.5 |
| 20260902012733 | 27 | 215 | 3.2 | 9.7 | 0.00 | 0.00 | 0.00 | 88 | 1015.6 |
| 20260902012229 | 27 | 231 | 1.6 | 9.7 | 0.00 | 0.00 | 0.00 | 88 | 1015.6 |
| 20260902011724 | 27 | 225 | 3.2 | 8.0 | 0.00 | 0.00 | 0.00 | 88 | 1015.5 |
| 20260902011224 | 27 | 214 | 4.8 | 9.7 | 0.00 | 0.00 | 0.00 | 88 | 1015.3 |
| 20260902010723 | 27 | 176 | 0.0 | 6.4 | 0.00 | 0.00 | 0.00 | 88 | 1015.1 |
| 20260902010219 | 27 | 209 | 3.2 | 9.7 | 0.00 | 0.00 | 0.00 | 88 | 1015.2 |
| 20260902005717 | 27 | 217 | 0.0 | 4.8 | 0.00 | 0.00 | 0.00 | 88 | 1015.1 |
| 20260902005214 | 27 | 191 | 1.6 | 6.4 | 0.00 | 0.00 | 0.00 | 87 | 1015.3 |
| 20260902004713 | 27 | 231 | 3.2 | 8.0 | 0.00 | 0.00 | 0.00 | 87 | 1015.3 |
| 20260902004208 | 28 | 176 | 0.0 | 4.8 | 0.00 | 0.00 | 0.00 | 87 | 1015.3 |
| 20260902003703 | 28 | 255 | 0.0 | 4.8 | 0.00 | 0.00 | 0.00 | 86 | 1015.1 |
| 20260902003159 | 28 | 214 | 3.2 | 6.4 | 0.00 | 0.00 | 0.00 | 86 | 1015.2 |
| 20260902002654 | 28 | 215 | 3.2 | 4.8 | 0.00 | 0.00 | 0.00 | 85 | 1015.4 |
| 20260902002149 | 28 | 297 | 0.0 | 6.4 | 0.00 | 0.00 | 0.00 | 85 | 1015.1 |
| 20260902001644 | 28 | 207 | 0.0 | 3.2 | 0.00 | 0.00 | 0.00 | 85 | 1015.3 |
| 20260902001143 | 28 | 255 | 0.0 | 3.2 | 0.00 | 0.00 | 0.00 | 84 | 1015.2 |
| 20260902000639 | 29 | 221 | 3.2 | 6.4 | 0.00 | 0.00 | 0.00 | 83 | 1015.3 |
| 20260902000134 | 29 | 226 | 3.2 | 4.8 | 0.00 | 0.00 | 0.00 | 83 | 1015.4 |
| 20260901235633 | 30 | 245 | 0.0 | 6.4 | 0.00 | 0.00 | 0.00 | 82 | 1015.2 |
| 20260901235129 | 30 | 217 | 0.0 | 4.8 | 0.00 | 0.00 | 0.00 | 82 | 1015.5 |
| 20260901234628 | 30 | 228 | 1.6 | 6.4 | 0.00 | 0.00 | 0.00 | 80 | 1015.3 |
| 20260901234123 | 30 | 230 | 1.6 | 6.4 | 0.00 | 0.00 | 0.00 | 80 | 1015.3 |
| 20260901233618 | 31 | 185 | 0.0 | 4.8 | 0.00 | 0.00 | 0.00 | 78 | 1015.5 |
| 20260901233114 | 31 | 299 | 0.0 | 3.2 | 0.00 | 0.00 | 0.00 | 79 | 1015.6 |
| 20260901232614 | 31 | 251 | 1.6 | 3.2 | 0.00 | 0.00 | 0.00 | 79 | 1015.7 |
| 20260901232109 | 31 | 145 | 0.0 | 3.2 | 0.00 | 0.00 | 0.00 | 76 | 1015.7 |